Location: Holkham
(52.9500°N, 0.8167°E)
Time: 20:50:38
(UTC+00:00)

Cosmos 1908 - Pass Details

Date: 19 May 2025
Orbit: 404 x 413 km, 82.5° (Epoch: 21 June)

Event Time Altitude Azimuth Distance (km) Brightness Sun altitude
Rises 21:32:42 0° 7° (N) 2,384 7.4 -11.0°
Enters shadow 21:39:05 - 94° (E) 1,769 5.6 -11.5°
Exits shadow 22:15:09 -72° 168° (SSE) 12,549 10.2 -14.0°
Reaches altitude 10° 23:07:48 10° 347° (NNW) 1,511 6.9 -16.4°
Maximum altitude 23:11:05 82° 261° (W) 428 2.7 -16.5°
